Regional Weather Roundup
Issued by NWS

Home | Current Version | Previous Version | Graphics & Text | Print | Product List | Glossary On
Versions: 1 2 3 4 5 6 7 8 9 10 11 12 13 14 15 16 17 18 19 20 21 22 23 24 25 26 27 28 29 30 31 32 33 34 35 36 37 38 39 40 41 42 43 44 45 46 47 48 49 50
000
ASUS43 KIND 222009
RWRIN

WEATHER ROUNDUP FOR INDIANA
NATIONAL WEATHER SERVICE INDIANAPOLIS IN
400 PM EDT SAT APR 22 2017

NOTE: "FAIR" INDICATES FEW OR NO CLOUDS BELOW 12,000 FEET WITH NO
SIGNIFICANT WEATHER AND/OR OBSTRUCTIONS TO VISIBILITY.

* - STATION DOES NOT REPORT WEATHER SUCH AS PRECIPITATION OR FOG.

+ - STATION NOT QUALITY CONTROLLED BY THE NATIONAL WEATHER SERVICE.
    USE DATA WITH CAUTION...ESPECIALLY DEWPOINT AND RELATIVE
    HUMIDITY OBSERVATIONS.

INZ001>003-010>013-019-020-222100-
NORTHWEST INDIANA

CITY           SKY/WX    TMP DP  RH WIND       PRES   REMARKS
GARY /AIRPORT/ PTSUNNY   50  34  53 NE9       30.19F
KNOX *+        MOSUNNY  N/A N/A N/A NE15G23   30.13F
LA PORTE +     CLOUDY    56  37  48 N13       30.15F
MICHIGAN CITY+ MOSUNNY   52  34  50 N7        30.17F
MONTICELLO +   CLOUDY    59  31  34 E13G18    30.11F
RENSSELAER +   SUNNY     63  28  27 N10G23    30.11F
VALPARAISO     CLOUDY    58  34  40 N12       30.14F

$$

LMZ046-743>745-222100-
SOUTHERN LAKE MICHIGAN

STATION/POSITION TIME  TEMP    WIND        PRES    WAVE
                       AIR SEA DIR/SP/G            HT
                 (UTC) (F)     (DEG/KT/KT) (MB)    (FT)
BURNS HARBOR     1940   44      30/  9/ 10 1022.4F
MICHIGAN CITY    1940   42      10/  8/  9   N/A

$$

INZ004-005-014>016-021>024-222100-
NORTH CENTRAL INDIANA

CITY           SKY/WX    TMP DP  RH WIND       PRES   REMARKS
ELKHART        SUNNY     61  30  31 NE10      30.13F
GOSHEN         SUNNY     60  31  33 N14G21    30.12F
LOGANSPORT +   CLOUDY    59  34  38 NE10G16   30.12F
PERU/GRISSOM   MOSUNNY   58  35  42 E12G23    30.10F
ROCHESTER +    CLOUDY    63  30  29 NE14      30.12F
SOUTH BEND     SUNNY     60  28  29 E12       30.13F
WARSAW +       MOSUNNY   59  30  33 NE10G22   30.12F

$$

INZ006>009-017-018-025>027-222100-
NORTHEAST INDIANA

CITY           SKY/WX    TMP DP  RH WIND       PRES   REMARKS
ANGOLA *+      SUNNY     61  50  67 NE8       30.12F
AUBURN +       CLOUDY    61  34  36 NE12      30.12F
FORT WAYNE     CLOUDY    57  36  45 E13       30.12F
HUNTINGTON +   MOSUNNY   56  33  41 E14       30.12F
KENDALLVILLE + CLOUDY    58  32  36 E12G21    30.12F

$$

INZ028-029-035-036-043>045-051>053-222100-
WEST CENTRAL INDIANA

CITY           SKY/WX    TMP DP  RH WIND       PRES   REMARKS
CRAWFORDSVL +  CLOUDY    51  36  55 NE17G25   30.09F
GREENCASTLE +  MOSUNNY   54  36  50 NE13G18   30.09S
LAFAYETTE      PTSUNNY   58  35  42 NE18G25   30.09F
TERRE HAUTE    LGT RAIN  56  37  49 NE14G25   30.08S

$$

INZ030>032-037>040-046>048-054>057-064-065-222100-
CENTRAL INDIANA

CITY           SKY/WX    TMP DP  RH WIND       PRES   REMARKS
ANDERSON       SUNNY     52  37  58 NE17      30.10
CP ATTERBURY + CLOUDY    54  39  58 NE13G22   30.08S
COLUMBUS       PTSUNNY   54  37  54 NE17      30.07F
FISHERS *+     PTSUNNY   54  41  62 NE12G18   30.08F
FRANKFORT +    MOSUNNY   58  36  43 E20G25    30.11F
GREENWOOD *+   CLOUDY    56  37  47 NE18G24   30.08F
INDIANAPOLIS   PTSUNNY   55  36  48 NE18      30.07F
-EAGLE CREEK   MOSUNNY   56  36  47 NE14      30.07F
KOKOMO +       CLOUDY    55  35  47 E17       30.11F
MARION +       PTSUNNY   52  36  54 E15G24    30.12F
MT COMFORT *+  PTSUNNY   55  37  50 NE14G24   30.08F
SHELBYVILLE    MOSUNNY   58  39  49 NE16      30.07S
ZIONSVILLE +   CLOUDY    52  35  51 NE17G23   30.10F

$$

INZ033-034-041-042-049-050-058-059-222100-
EAST CENTRAL INDIANA

CITY           SKY/WX    TMP DP  RH WIND       PRES   REMARKS
MUNCIE         CLOUDY    54  36  50 NE14      30.10F
RICHMOND +     CLOUDY    52  37  58 NE16G29   30.06F

$$

INZ060-061-067>069-081>083-085>088-222100-
SOUTHWEST INDIANA

CITY           SKY/WX    TMP DP  RH WIND       PRES   REMARKS
EVANSVILLE     CLOUDY    55  47  74 NE14      30.01R
HUNTINGBURG *+ PTSUNNY   53  46  77 NE14G23   30.00F
WASHINGTON +   CLOUDY    57  40  52 MISG      30.00F

$$

INZ062-063-066-070>080-084-089>092-222100-
SOUTH CENTRAL AND SOUTHEAST INDIANA

CITY           SKY/WX    TMP DP  RH WIND       PRES   REMARKS
BEDFORD +      CLOUDY    54  37  54 NE13      30.04F
BLOOMINGTON    CLOUDY    55  37  50 NE17G25   30.04F
MADISON *+     CLOUDY    52  37  58 NE9       30.05F
NORTH VERNON + CLOUDY    54  39  58 NE8       30.06F
SEYMOUR +      CLOUDY    54  39  58 NE14      30.05F

$$




USA.gov is the U.S. government's official web portal to all federal, state and local government web resources and services.